Regional Weather Roundup
Issued by NWS Charleston, WV

Home | Current Version | Previous Version | Graphics & Text | Print | Product List | Glossary On
Versions: 1 2 3 4 5 6 7 8 9 10 11 12 13 14 15 16 17 18 19 20 21 22 23 24 25 26 27 28 29 30 31 32 33 34 35 36 37 38 39 40 41 42 43 44 45 46 47 48 49 50
000
ASUS41 KRLX 280710
RWRRLX
West Virginia Regional Weather Roundup
National Weather Service Charleston WV
200 AM EST SUN DEC 28 2014

Note: "fair" indicates few or no clouds below 12,000 feet with no
significant weather and/or obstructions to visibility.

WVZ003-280800-
Northern Panhandle of West Virginia

CITY           SKY/WX    TMP DP  RH WIND       PRES   REMARKS
WHEELING       LGT RAIN  46  43  89 W12       29.98F
$$

WVZ009-280800-
Northwest West Virginia

CITY           SKY/WX    TMP DP  RH WIND       PRES   REMARKS
PARKERSBURG    LGT RAIN  51  42  71 W9        30.04S
$$

WVZ006-280800-
Western West Virginia

CITY           SKY/WX    TMP DP  RH WIND       PRES   REMARKS
HUNTINGTON     CLOUDY    51  43  74 SW9       30.03F
$$

WVZ015-280800-
West Central West Virginia

CITY           SKY/WX    TMP DP  RH WIND       PRES   REMARKS
CHARLESTON     CLOUDY    53  40  61 SW18G32   30.04S
$$

WVZ022-031-280800-
North Central West Virginia

CITY           SKY/WX    TMP DP  RH WIND       PRES   REMARKS
CLARKSBURG     CLOUDY    51  30  44 W6        30.00S
MORGANTOWN     LGT RAIN  50  32  50 S8G17     30.02R
$$

WVZ025-035-042-045-280800-
Southern West Virginia

CITY           SKY/WX    TMP DP  RH WIND       PRES   REMARKS
BECKLEY        CLOUDY    50  29  44 N3        30.04F
LOGAN          CLOUDY    52  41  66 W13       30.04F
BLUEFIELD      CLOUDY    58  28  32 SW8       30.03F
LEWISBURG      CLOUDY    45  33  64 CALM      30.05R
$$

WVZ047-280800-
Northern Mountains of West Virginia

CITY           SKY/WX    TMP DP  RH WIND       PRES   REMARKS
ELKINS         CLOUDY    45  37  73 E3        30.02R
$$

WVZ052-280800-
Eastern Panhandle of West Virginia

CITY           SKY/WX    TMP DP  RH WIND       PRES   REMARKS
MARTINSBURG    CLOUDY    44  31  60 CALM      29.95F
PETERSBURG     MOCLDY    40  34  79 CALM      29.98R
$$



USA.gov is the U.S. government's official web portal to all federal, state and local government web resources and services.